This demonstration page uses our WeatherBlox Daily Observations layout. Learn more.

Left ArrowRight Arrow

Hourly Observations for June 21, 2015

Temp ( °F °C ) Dew Point ( °F °C ) Humidity (%) Winds ( mph kmh ) Pressure ( in mb ) Visibility ( mi km ) Precip ( " mm )
12:54 am 00:54 Mostly Cloudy 72 22.2 66 18.9 82 82 N 8 13 29.88 1012 10 16.0934 N/A
1:54 am 01:54 Clear 71 21.7 66 18.9 84 84 N N/A 29.87 1011 10 16.0934 N/A
2:54 am 02:54 Clear 71 21.7 65 18.3 81 81 N N/A 29.86 1011 10 16.0934 N/A
3:54 am 03:54 Clear 70 21.1 65 18.3 84 84 N N/A 29.85 1011 10 16.0934 N/A
4:54 am 04:54 Clear 69 20.6 64 17.8 84 84 N N/A 29.85 1011 10 16.0934 N/A
5:54 am 05:54 Clear 66 18.9 63 17.2 90 90 NNE 7 11 29.87 1011 10 16.0934 N/A
6:54 am 06:54 Sunny 68 20 65 18.3 90 90 N 7 11 29.9 1013 10 16.0934 N/A
7:54 am 07:54 Sunny 70 21.1 66 18.9 87 87 NNW 12 19 29.97 1015 10 16.0934 N/A
8:54 am 08:54 Sunny 71 21.7 67 19.4 87 87 NE 10 17 29.92 1013 10 16.0934 N/A
9:54 am 09:54 Sunny 73 22.8 66 18.9 79 79 N 6 9 29.96 1015 10 16.0934 N/A
10:54 am 10:54 Sunny 76 24.4 67 19.4 74 74 ENE 3 6 29.91 1013 10 16.0934 N/A
11:54 am 11:54 Sunny 81 27.2 68 20 65 65 E 17 28 29.83 1010 10 16.0934 N/A
12:54 pm 12:54 Sunny 84 28.9 66 18.9 55 55 SE 16 26 29.89 1012 10 16.0934 N/A
1:54 pm 13:54 Sunny 85 29.4 68 20 57 57 ESE 13 20 29.87 1012 10 16.0934 N/A
2:54 pm 14:54 Sunny 87 30.6 68 20 53 53 ESE 15 24 29.85 1011 10 16.0934 N/A
3:54 pm 15:54 Sunny 87 30.6 70 21.1 57 57 ESE 13 20 29.85 1011 10 16.0934 N/A
4:54 pm 16:54 Mostly Cloudy 86 30 72 22.2 63 63 SSE 10 17 29.84 1011 10 16.0934 N/A
5:54 pm 17:54 Mostly Sunny 87 30.6 73 22.8 63 63 S 10 17 29.83 1010 10 16.0934 N/A
6:54 pm 18:54 Cloudy 86 30 72 22.2 63 63 SE 10 17 29.8 1009 10 16.0934 N/A
7:54 pm 19:54 Partly Cloudy 85 29.4 73 22.8 68 68 SE 12 19 29.79 1009 10 16.0934 N/A
8:54 pm 20:54 Sunny 84 28.9 74 23.3 72 72 ESE 10 17 29.78 1008 10 16.0934 N/A
9:54 pm 21:54 Clear 82 27.8 75 23.9 79 79 ESE 14 22 29.78 1009 10 16.0934 N/A
10:54 pm 22:54 Clear 79 26.1 73 22.8 82 82 SE 10 17 29.77 1008 10 16.0934 N/A
11:54 pm 23:54 Clear 79 26.1 73 22.8 82 82 SSE 9 15 29.75 1007 10 16.0934 N/A

Powered by AerisWeather